Omaha, IA

10:09 PM CDT on October 15, 2019 (GMT -0500)
Eppley Airfield

Weather History for KOMA - September, 2019

Change the Weather History Date:

Monday, September 16, 2019

  Actual Average Record
Temperature  
Mean Temperature 82 °F 66 °F  
Max Temperature 92 °F 78 °F 97 °F (1931)
Min Temperature 71 °F 54 °F 36 °F (1903)
Degree Days  
Heating Degree Days 0 3  
Month to date heating degree days 0 26  
Since 1 July heating degree days 0 34  
Cooling Degree Days 16 4  
Month to date cooling degree days 152 85  
Year to date cooling degree days 1288 1065  
Growing Degree Days 32 (Base 50)    
Moisture  
Dew Point 69 °F    
Average Humidity 69    
Maximum Humidity 90    
Minimum Humidity 46    
Precipitation  
Precipitation 0.00 in 0.08 in 2.06 in (1968)
Month to date precipitation 0.30 1.53  
Year to date precipitation 25.60 24.64  
Snow  
Snow 0.00 in 0.00 in - ()
Month to date snowfall 0.0 0.0  
Since 1 July snowfall 0.0 0.0  
Since 1 September snowfall 0.0 0.0  
Snow Depth 0.00 in    
Sea Level Pressure  
Sea Level Pressure 29.99 in    
Wind  
Wind Speed 8 mph ()    
Max Wind Speed 18 mph    
Max Gust Speed -    
Visibility 10.0 miles    
Events      
T = Trace of Precipitation, MM = Missing Value Source: Averaged Metar Reports

Daily Weather History Graph

Daily Weather History Graph

Search for Another Location

Airport or City:

Astronomy

Sep. 16, 2019 Rise Set
Actual Time 7:04 AM CDT 7:31 PM CDT
Civil Twilight 6:37 AM CDT 7:59 PM CDT
Nautical Twilight 6:04 AM CDT 8:31 PM CDT
Astronomical Twilight 5:30 AM CDT 9:04 PM CDT
Moon 9:05 PM CDT 9:13 AM CDT
Length of Visible Light 13h 21m
Length of Day
12h 26m
Waning Gibbous, 94% of the Moon is Illuminated
Sep 16
Waning Gibbous
Sep 21
Last Quarter
Sep 28
New
Oct 5
First Quarter
Oct 13
Full

Hourly Weather History & Observations

Time (CDT) Temp. Heat Index Dew Point Humidity Pressure Visibility Wind Dir Wind Speed Gust Speed Precip Events Conditions
12:52 AM 75.0 °F - 69.1 °F 82% 29.99 in 10.0 mi SE 6.9 mph - N/A   Partly Cloudy
1:52 AM 73.9 °F - 69.1 °F 85% 29.99 in 10.0 mi SE 5.8 mph - N/A   Scattered Clouds
2:52 AM 73.0 °F - 68.0 °F 84% 30.00 in 10.0 mi Calm Calm - N/A   Scattered Clouds
3:52 AM 72.0 °F - 68.0 °F 87% 30.00 in 10.0 mi SSE 6.9 mph - N/A   Mostly Cloudy
4:52 AM 72.0 °F - 68.0 °F 87% 30.00 in 10.0 mi SSE 6.9 mph - N/A   Mostly Cloudy
5:52 AM 72.0 °F - 68.0 °F 87% 30.01 in 10.0 mi SSE 3.5 mph - N/A   Mostly Cloudy
6:52 AM 72.0 °F - 66.9 °F 84% 30.02 in 10.0 mi South 8.1 mph - N/A   Mostly Cloudy
7:52 AM 73.0 °F - 68.0 °F 84% 30.03 in 10.0 mi SSE 6.9 mph - N/A   Mostly Cloudy
8:52 AM 75.0 °F - 68.0 °F 79% 30.03 in 10.0 mi SSE 10.4 mph - N/A   Mostly Cloudy
9:52 AM 80.1 °F 82.3 °F 66.9 °F 64% 30.03 in 10.0 mi South 10.4 mph - N/A   Mostly Cloudy
10:52 AM 82.0 °F 84.5 °F 66.9 °F 60% 30.03 in 10.0 mi South 10.4 mph - N/A   Overcast
11:52 AM 87.1 °F 90.6 °F 68.0 °F 53% 30.02 in 10.0 mi South 10.4 mph - N/A   Overcast
12:52 PM 89.1 °F 92.9 °F 68.0 °F 50% 30.01 in 10.0 mi ESE 11.5 mph - N/A   Overcast
1:52 PM 90.0 °F 92.8 °F 66.9 °F 46% 29.99 in 10.0 mi South 12.7 mph - N/A   Overcast
2:52 PM 91.0 °F 95.2 °F 68.0 °F 47% 29.97 in 10.0 mi South 13.8 mph - N/A   Overcast
3:52 PM 91.0 °F 95.2 °F 68.0 °F 47% 29.97 in 10.0 mi South 15.0 mph - N/A   Overcast
4:52 PM 89.1 °F 93.7 °F 69.1 °F 52% 29.96 in 10.0 mi SSE 18.4 mph - N/A   Overcast
5:52 PM 89.1 °F 94.1 °F 70.0 °F 53% 29.96 in 10.0 mi South 17.3 mph - N/A   Mostly Cloudy
6:52 PM 87.1 °F 92.0 °F 70.0 °F 57% 29.96 in 10.0 mi SSE 4.6 mph - N/A   Mostly Cloudy
7:52 PM 82.9 °F 87.5 °F 71.1 °F 67% 29.96 in 10.0 mi SSE 15.0 mph - N/A   Mostly Cloudy
8:52 PM 81.0 °F 84.9 °F 71.1 °F 72% 29.97 in 10.0 mi SSE 13.8 mph - N/A   Mostly Cloudy
9:52 PM 80.1 °F 83.6 °F 71.1 °F 74% 29.97 in 10.0 mi SSE 12.7 mph - N/A   Mostly Cloudy
10:52 PM 79.0 °F - 71.1 °F 77% 29.98 in 10.0 mi SSE 12.7 mph - N/A   Mostly Cloudy
11:52 PM 79.0 °F - 71.1 °F 77% 29.98 in 10.0 mi SSE 11.5 mph - N/A   Mostly Cloudy